loading
|

THOR ABLESTAR DEB, 125

Orbit data source: Space-Track

THOR ABLESTAR DEB, 125 is space debris in LEO originally from a launch on Thu, 29 Jun 1961 UTC launched from the Air Force Eastern Test Range (AFETR). Debris objects in space refer to the collection of defunct objects orbiting the Earth. Examples of debris include non-operational satellites, rocket bodies, and fragments generated from explosions, collisions, or faulty payload assembly.

Loading next visibility...
Loading greatness...
THOR ABLESTAR DEB details
Identifier
125, 1961-015K
Orbit
LEO
Last TLE update12 hours ago
Origin
Flag of USUSAF SSD (US)
ManufacturerUnknown
Mission statusUnknown
MissionUnknown
Bus & MotorUnknown
MassUnknown
Launch date (UTC)
1961-06-29 (63 years ago)
Launch vehicleUnknown
Launch site
Air Force Eastern Test Range (AFETR)
Object type
Payload
Rocket body
Debris
Radar Cross SectionSmall (<0.1 m²)

Expand to show TLE details & history

TLE from 12 hours ago
0 THOR ABLESTAR DEB
1 00125U 61015K   24258.84680111  .00001753  00000-0  10732-2 0  9992
2 00125  66.8742  91.5116 0074287 178.9980 181.1270 14.06789982227157
Epoch: 2024-09-14T20:19Z
Definitive object data (Epoch: 2024-09-14T20:19:23.615Z)
Latitude-0.0001°
Longitude152.36451°
Altitude926.318 km
Speed7.362 km/s
True Right ascension06h 06m 02s
True Declination0° 00' 00"
Sunlit
Object was in daylight at TLE epoch
Predictive object data (real-time)
Latitude-39.24772°
Longitude130.83377°
Altitude924.444 km
Speed7.369 km/s
Apparent Right ascension08h 12m 11s
Apparent Declination-58° 40' 20"
Sunlit
Object is in daylight
Predictive observer data (real-time)
Local Sidereal Time00:42:11
Azimuth137.678° SSE
Elevation-44.485°
Doppler factor1
Orbital elements
Apogee922.585 km
Perigee814.915 km
Semi-major axis7,246.887 km
Eccentricity0.0074287
Inclination66.8742°
RAAN91.5116°
Arg. of periapsis178.998°
True anomaly181.11041°
Mean anomaly181.127°
Eccentric anomaly181.11869°
Mean motion3.51816 °/min
BSTAR0.0010732
Period102.33 mins
No data available

THOR ABLESTAR DEB Visibility forecast

Observer location: 39.9160978°, -105.1181434

THOR ABLESTAR DEB is not visible in the next 10 days
Span
Click to sort rows by Start time (UTC) header in descending order
Start Az.
Max El. time (UTC)
Max El. Az.
Max El.
End time (UTC)
End Az.